Theta_e
312 310 309 308 309 309 308 308 308 309 310 311 310 309 310 310 310 317 318 316 316 310 309 308 313 310 311 316 315 313 309 310 312 313 315 326 327 327 330 331 331 333 334 333 334
319 316 312 310 308 308 308 307 308 309 310 311 310 309 310 309 314 319 318 315 315 313 309 309 314 310 312 313 314 311 309 312 311 312 323 325 325 327 330 331 330 331 331 332 331
322 321 320 314 309 307 307 307 308 309 310 311 310 309 309 308 314 319 317 314 313 312 309 314 315 315 314 313 313 311 312 311 313 314 322 324 324 326 330 330 329 330 330 330 330
322 323 322 321 314 309 307 307 308 309 311 311 309 309 308 307 318 317 316 313 311 311 310 314 315 315 313 313 314 313 312 313 313 320 324 323 324 324 325 326 330 329 331 329 330
315 321 322 322 321 312 307 307 308 309 311 311 309 308 308 307 314 319 315 312 310 310 313 315 316 316 314 312 312 311 312 315 314 323 324 323 323 325 327 330 329 327 330 329 329
318 312 320 321 322 318 309 307 308 309 311 311 309 308 308 306 319 318 315 312 311 313 315 316 316 316 316 315 315 316 317 321 323 324 325 326 326 326 327 329 327 327 329 327 326
318 317 312 318 320 321 312 308 307 309 311 311 309 308 308 308 317 318 316 314 312 314 315 316 316 316 317 315 317 317 321 322 323 324 324 324 321 326 328 327 326 327 326 324 321
312 317 317 315 316 321 317 308 307 308 311 311 308 307 308 308 316 318 318 317 316 315 315 316 316 317 317 317 316 314 314 318 323 323 323 320 323 325 328 326 327 325 325 325 323
302 313 318 316 315 319 320 310 307 308 311 311 309 308 308 311 312 316 317 319 319 319 318 316 317 317 317 315 313 312 314 317 324 323 322 319 321 323 328 327 327 327 326 325 326
299 306 314 315 316 317 320 310 307 310 312 313 314 310 308 315 317 317 317 317 318 318 318 318 317 313 311 313 316 317 317 316 317 316 322 322 319 321 327 328 329 328 329 328 328
299 303 310 316 314 319 320 308 311 316 318 318 310 308 308 314 316 317 317 317 317 318 317 317 314 315 315 314 316 317 317 317 315 315 317 320 319 321 324 327 328 329 330 329 328
299 299 313 314 319 319 319 307 313 313 315 315 315 315 318 318 318 317 317 317 317 317 318 315 316 315 316 316 318 318 318 317 316 314 315 315 317 322 322 325 327 329 329 329 328
299 299 309 313 318 318 319 309 316 318 313 313 314 314 314 316 317 317 316 317 316 316 317 316 316 318 318 317 318 317 318 317 318 316 314 315 316 321 320 324 325 327 329 328 329
300 299 311 315 317 316 317 317 318 315 313 315 317 316 315 317 317 317 317 317 317 316 315 316 316 318 318 318 316 318 316 317 317 316 314 313 314 316 317 323 321 324 327 329 329
303 299 310 314 315 312 316 317 313 315 311 312 320 317 317 316 316 317 317 317 316 317 316 317 318 318 318 317 316 317 317 318 318 317 316 317 315 314 315 317 322 322 325 328 328
306 301 309 313 314 314 318 318 317 317 311 312 319 317 314 315 316 315 317 317 317 317 317 315 318 316 316 316 316 318 318 314 315 316 317 317 316 316 316 317 319 321 323 327 328
305 303 308 311 314 312 316 315 322 316 312 316 319 315 313 314 315 314 315 316 316 317 317 317 317 317 318 318 317 316 314 315 316 317 318 317 318 317 315 314 315 315 320 326 328
304 304 305 310 314 315 314 319 320 316 315 317 316 315 314 314 314 315 313 314 314 314 315 317 317 318 318 317 316 317 314 315 318 317 316 317 319 318 317 317 318 317 317 320 323
303 304 304 309 314 315 316 319 316 315 317 315 316 316 315 314 314 314 313 312 313 313 316 316 317 317 318 318 317 317 317 314 316 314 318 316 316 313 316 318 318 318 318 317 322
302 303 302 307 313 314 314 318 319 315 320 320 316 315 315 313 314 313 312 312 313 313 314 316 316 317 318 319 318 317 315 316 314 320 321 316 315 315 316 317 318 318 319 321 320
302 304 303 306 312 312 312 314 316 317 318 319 320 318 315 314 313 312 313 313 312 312 313 315 313 313 320 318 317 316 316 313 313 313 316 315 315 311 314 316 316 315 319 320 322
304 303 305 306 312 313 314 312 313 317 317 318 319 320 317 313 313 313 313 313 314 315 314 315 313 312 316 317 316 314 315 314 314 316 311 311 314 313 310 310 313 316 319 320 321
304 305 308 308 312 312 312 312 313 315 315 316 318 319 318 315 314 313 312 313 314 314 315 316 314 314 315 314 315 318 316 315 312 310 314 312 314 311 311 311 314 314 318 319 321
303 304 309 309 311 310 311 312 312 314 314 315 317 319 319 318 314 313 314 318 316 315 316 315 314 314 316 315 314 317 317 315 315 313 313 312 314 313 313 312 313 315 316 316 320
303 304 309 309 309 311 310 311 312 313 314 314 315 317 318 319 317 318 318 319 317 317 314 314 315 313 314 314 315 316 318 315 316 315 316 316 313 314 313 312 311 313 313 315 317
302 305 308 309 308 310 312 311 312 312 314 313 315 315 316 318 315 316 319 317 317 315 315 312 315 314 317 315 315 317 315 314 315 315 314 313 314 311 311 312 312 311 315 318 320
300 304 308 308 309 309 310 311 311 312 313 314 313 313 315 315 316 316 316 316 315 316 314 312 311 312 316 311 313 313 311 313 313 312 314 315 313 310 311 311 311 313 315 315 316
Wind_Speed
14 15 16 16 15 15 14 15 16 18 19 22 24 22 21 19 14 5 5 7 6 3 4 3 2 5 8 5 3 4 4 2 4 2 5 3 2 2 4 5 4 2 9 15 24
16 16 16 16 15 15 14 14 16 18 19 20 22 20 18 17 6 4 7 10 6 2 2 4 4 5 3 1 3 4 3 5 5 4 4 4 3 5 3 4 4 11 12 20 19
17 17 16 16 16 15 14 15 16 18 19 20 21 18 16 15 4 3 9 8 4 2 5 7 6 3 2 3 6 5 5 6 9 14 7 5 3 4 11 2 7 13 21 23 21
20 18 17 17 17 16 15 15 16 18 19 19 19 17 15 10 1 4 7 5 1 5 8 7 2 2 3 2 3 2 12 10 6 6 6 5 8 4 1 3 13 18 19 21 19
21 21 19 18 17 17 17 16 16 18 18 19 18 16 13 6 4 3 5 4 3 7 8 5 1 1 1 3 2 3 4 5 9 7 7 9 3 5 3 9 15 14 17 18 18
24 24 22 19 18 17 17 16 16 18 18 18 17 15 11 5 5 2 3 4 5 8 6 2 3 6 4 3 1 5 7 2 5 6 7 10 3 3 2 14 14 19 18 16 15
25 24 22 20 18 18 18 17 17 18 19 18 16 16 14 13 8 6 1 3 5 6 3 3 6 6 7 4 5 6 0 2 2 5 3 12 3 3 16 16 18 19 19 13 14
26 24 23 23 19 18 18 17 18 18 18 18 15 15 10 5 13 10 5 3 3 4 6 6 7 10 3 7 5 4 3 1 1 2 3 3 2 3 18 21 19 18 16 16 15
22 24 22 21 19 17 17 18 18 19 19 17 13 8 9 5 13 10 8 5 2 4 10 7 7 4 3 2 4 6 1 4 3 4 3 2 1 5 19 20 19 19 18 17 18
20 21 21 18 19 18 16 18 18 18 16 13 13 8 9 4 6 10 11 10 7 6 3 1 1 2 3 3 2 1 2 3 2 3 2 4 2 5 23 19 20 21 21 21 20
22 20 19 17 19 18 15 13 10 7 7 9 2 6 7 4 8 9 10 9 7 2 2 3 4 2 5 5 4 3 2 3 5 4 6 9 5 11 19 16 15 24 23 24 24
23 20 19 17 17 18 14 10 6 5 11 16 21 28 25 23 9 8 10 8 6 4 1 5 3 6 4 3 4 2 4 6 6 3 5 4 6 12 15 22 26 30 29 30 30
25 22 19 14 15 19 15 11 10 9 6 13 19 18 24 17 10 10 14 12 4 4 4 5 4 2 3 3 4 4 2 5 4 5 1 4 2 5 5 11 20 24 32 30 32
25 21 16 12 14 18 14 7 11 6 3 7 6 8 15 10 6 14 16 11 2 8 6 4 4 3 1 2 4 2 5 3 5 1 1 3 3 4 5 15 8 25 31 35 33
24 22 17 16 10 6 7 3 8 7 3 3 4 2 15 17 8 14 15 11 8 6 6 8 2 5 3 5 5 8 3 2 2 2 3 3 4 4 4 7 18 21 33 39 38
22 21 20 21 23 13 10 1 5 3 7 4 7 7 7 9 5 8 15 6 5 5 1 5 2 4 5 4 6 1 2 6 4 3 2 3 4 5 5 12 17 21 30 42 41
23 22 26 27 23 20 16 4 4 5 1 5 5 6 6 6 4 5 7 6 6 4 3 2 3 2 3 2 2 3 5 3 3 4 4 3 2 8 8 4 8 12 30 45 47
25 22 29 31 23 17 9 4 10 5 6 3 1 4 8 6 6 5 6 6 2 4 3 5 5 6 3 6 7 3 6 5 2 2 3 3 5 6 2 8 11 17 20 29 40
26 24 32 34 28 24 11 10 7 6 4 3 2 5 4 4 6 4 8 8 9 8 7 4 4 1 1 1 2 3 2 4 6 3 2 3 6 9 3 4 7 6 5 17 26
30 26 36 33 29 23 5 17 7 5 3 2 7 6 9 7 6 8 9 6 7 10 5 7 2 1 1 2 3 2 6 3 3 2 3 4 4 5 7 4 2 5 8 7 14
30 15 15 34 30 14 10 10 16 20 2 2 2 2 7 8 9 6 9 2 8 6 6 5 4 4 0 5 8 2 2 4 5 4 4 1 5 7 7 6 6 5 7 11 12
29 7 20 42 17 14 17 7 15 19 6 4 3 4 4 7 7 8 10 10 17 13 9 7 6 4 9 3 3 5 6 6 5 4 1 4 6 5 8 6 7 11 6 6 6
20 14 27 50 14 17 13 13 7 14 8 6 4 4 1 4 4 6 7 6 15 9 9 7 1 2 7 5 4 4 4 3 5 3 6 5 6 3 7 8 10 11 11 9 7
13 8 17 35 41 19 23 16 23 14 5 10 2 3 1 3 4 7 7 5 13 12 8 12 4 7 8 8 4 4 6 5 5 4 4 6 6 8 8 6 12 14 16 14 12
15 9 15 14 24 21 19 14 21 17 22 12 2 5 3 3 1 4 2 2 2 7 6 7 7 5 4 4 4 5 4 8 7 5 6 7 7 9 7 5 10 12 7 7 9
8 8 18 9 31 24 13 24 24 23 8 16 6 9 8 5 7 5 3 4 6 5 6 1 5 4 2 2 2 3 5 5 4 3 5 6 7 7 4 2 3 2 5 11 8
34 26 12 20 20 18 30 18 20 18 25 11 23 17 8 20 26 21 15 8 2 5 9 7 7 4 4 3 4 7 9 9 6 5 7 7 10 6 2 3 5 10 14 16 15
Wind_Direction
298 300 304 308 314 315 310 312 316 319 326 330 331 337 334 332 335 2 11 356 355 5 232 227 151 158 176 196 135 110 64 259 256 230 273 121 160 89 87 93 39 231 166 174 161
295 301 306 310 313 315 308 310 313 319 326 331 330 337 335 335 339 24 6 349 344 347 161 163 145 163 171 166 161 108 140 235 217 215 239 152 153 149 99 115 63 95 134 155 163
285 294 302 307 310 312 307 309 312 319 325 330 330 336 334 335 324 355 346 339 325 205 150 143 123 162 189 183 184 166 206 229 248 250 257 169 132 137 131 212 189 162 148 154 156
271 281 291 301 309 312 308 309 313 317 323 329 329 332 334 332 198 347 344 347 111 169 157 158 200 234 156 250 193 222 233 240 299 212 135 147 133 79 62 280 187 163 157 160 164
272 271 277 289 301 309 309 309 312 315 320 326 326 327 337 317 258 319 348 32 117 149 148 147 234 234 238 241 271 214 271 314 255 163 113 120 108 140 40 158 147 148 152 158 170
267 276 272 279 293 304 307 307 308 311 317 322 322 319 321 285 231 261 23 68 113 142 168 173 324 315 270 255 197 267 305 31 95 123 123 118 164 10 143 154 151 153 161 166 164
260 267 277 276 283 296 304 307 304 308 313 315 316 313 300 263 220 216 194 96 133 162 201 298 333 307 320 307 304 294 350 65 100 158 136 128 41 66 156 162 155 159 157 164 162
254 260 270 278 279 288 301 305 300 302 305 306 306 307 270 250 209 213 207 176 178 217 248 295 316 301 270 304 344 30 63 132 163 128 147 89 211 140 158 165 174 173 172 181 190
257 253 261 274 278 284 298 304 299 298 296 292 292 294 269 230 219 211 229 221 225 282 281 269 288 274 331 46 9 9 50 6 36 191 115 55 144 160 171 170 194 199 199 201 200
259 252 256 264 273 282 296 306 301 294 285 278 262 287 248 184 196 226 230 239 249 301 295 204 279 39 32 69 159 23 38 329 274 248 162 145 177 170 184 184 201 214 213 223 211
254 251 248 257 270 281 293 314 302 287 261 231 226 247 278 231 269 226 217 215 230 247 248 40 60 208 229 204 150 137 126 247 239 233 157 218 163 186 192 209 212 218 220 222 219
248 249 244 248 264 276 286 289 275 288 306 277 258 255 254 262 285 218 197 169 162 199 182 24 241 219 179 187 191 118 6 321 284 38 164 182 200 191 182 204 212 210 216 216 219
239 240 233 241 256 268 280 279 265 282 281 282 247 242 237 229 226 218 185 188 150 157 192 173 260 287 159 138 270 22 295 297 253 338 77 112 70 167 226 208 225 225 225 226 221
238 234 218 224 261 266 270 231 266 218 307 265 226 236 189 178 229 203 192 169 127 200 161 226 275 248 104 162 131 305 205 226 269 21 197 67 253 253 230 216 216 224 221 227 232
240 227 203 209 226 240 179 259 138 149 314 222 182 204 178 169 155 198 197 174 161 169 121 244 226 203 195 215 154 230 174 293 309 95 70 329 84 263 148 227 234 228 228 228 230
245 221 200 212 227 217 179 98 188 69 244 301 161 162 157 190 178 143 176 177 166 116 162 239 241 198 220 196 182 184 92 43 42 66 49 287 116 280 194 212 228 229 233 233 231
233 222 206 206 224 222 240 240 213 201 282 233 190 161 181 162 188 159 151 147 143 117 240 290 213 260 210 131 78 101 64 349 7 16 219 312 32 234 255 283 231 219 223 232 232
221 223 212 207 206 218 217 214 224 215 220 303 191 114 185 143 213 174 125 156 170 105 115 179 299 182 197 197 178 149 147 150 218 195 257 245 237 265 220 307 294 261 250 234 232
212 221 216 208 200 211 200 222 198 225 219 228 88 130 225 213 150 141 176 184 178 168 164 155 271 277 212 350 148 168 152 162 106 3 50 259 294 302 16 3 334 318 237 214 222
207 220 222 204 198 201 204 229 219 226 328 23 195 179 181 193 155 164 180 198 191 185 168 201 186 255 266 144 231 173 157 76 13 170 253 294 287 242 319 305 255 289 262 231 210
198 212 236 194 194 197 210 217 221 253 291 324 289 274 209 171 169 186 199 264 189 159 131 139 130 272 104 203 195 131 186 60 114 130 172 212 263 218 241 258 304 245 251 237 227
190 202 190 181 185 212 221 204 227 228 242 256 286 239 217 184 162 185 193 201 182 151 159 198 149 201 217 275 187 169 183 144 128 208 141 155 272 247 236 260 295 298 312 314 244
195 187 185 180 188 213 208 204 244 215 205 186 245 220 333 206 181 187 198 227 166 149 160 179 197 65 337 356 347 212 190 124 108 95 192 140 259 327 303 272 259 280 286 296 270
183 176 175 193 209 203 197 203 212 231 242 199 227 251 357 303 238 212 203 200 190 194 185 147 141 165 200 211 170 176 177 167 139 123 180 216 268 293 284 299 291 272 286 282 265
193 207 189 184 209 206 196 189 199 213 214 191 236 222 166 236 261 189 149 111 114 171 137 140 193 178 217 216 181 201 182 166 183 194 168 242 204 257 259 278 291 295 290 238 246
179 199 194 196 204 204 205 206 198 205 173 213 205 196 209 208 203 178 161 196 187 188 152 150 200 163 136 101 82 233 249 218 232 189 245 232 253 228 299 264 21 73 111 87 83
207 199 201 214 184 191 213 195 197 196 230 199 209 217 189 223 238 261 247 252 225 190 168 143 133 122 219 23 47 317 219 214 202 198 181 210 225 156 148 109 78 102 102 93 85